Starlink 31868

operational
NORAD ID: 59783 Int'l Des: 2024-093 Owner: SPXS Country: US Constellation: starlink
LEOCIRCULAR

About Starlink 31868

Description loading...

Live Position

Loading 3D Globe...

Upcoming Passes

Altitude History

Altitude vs Time

uPlot chart will show altitude changes over time

Two-Line Element Set

1 59783U 24093B 25353.53824995 -.00000766 00000-0 -18317-4 0 9998
2 59783 43.0003 298.3271 0000958 276.5748 83.4995 15.27579794 90471
Epoch: Dec 19, 2025 • Age: 11 hours

Current Status

Altitude 484.3 km
Velocity 7.63 km/s
Sub-Earth Point 31.56°N, 114.02°W
Launch Date May 18, 2024
Age 1.5 years
Type internet

Technical Details

Classification Payload
Mass 730.00 kg
Dry Mass 700.00 kg
Total Mass 730.00 kg
Length 0.30 m
Diameter 4.10 m
Span 29.00 m
Shape Box + pan
Manufacturer SPXS
Bus Type Starlink V2M
Phase Status In Orbit
Owner/State SPXS/US

Large Constellations

Loading constellations...